Weather History for KUUU - May, 2014

Change the Weather History Date:

Sunday, May 18, 2014

  Actual Average Record
Temperature  
Mean Temperature 58 °F -  
Max Temperature 68 °F 65 °F 81 °F (1977)
Min Temperature 51 °F 47 °F 33 °F (1983)
Degree Days  
Heating Degree Days 6    
Growing Degree Days 8 (Base 50)    
Moisture  
Dew Point 41 °F    
Average Humidity 52    
Maximum Humidity 71    
Minimum Humidity 39    
Precipitation  
Precipitation 0.00 in - - ()
Sea Level Pressure  
Sea Level Pressure 30.06 in    
Wind  
Wind Speed 8 mph (NW)    
Max Wind Speed 12 mph    
Max Gust Speed -    
Visibility 10 miles    
Events      
Averages and records for this station are not official NWS values.
T = Trace of Precipitation, MM = Missing Value Source: NWS Daily Summary

Daily Weather History Graph

Daily Weather History Graph

Search for Another Location

Airport or City:

Trip Planner

Search our weather history database for the weather conditions in past years. The results will help you decide how hot, cold, wet, or windy it might be!

Date:

Astronomy

May. 18, 2014 Rise Set
Actual Time 5:23 AM EDT 8:00 PM EDT
Civil Twilight 4:51 AM EDT 8:32 PM EDT
Nautical Twilight 4:11 AM EDT 9:12 PM EDT
Astronomical Twilight 3:26 AM EDT 9:58 PM EDT
Moon 11:45 PM EDT (5/18) 9:09 AM EDT (5/18)
Length of Visible Light 15h 41m
Length of Day
14h 37m
Waning Gibbous, 81% of the Moon is Illuminated
May 18
Waning Gibbous
May 21
Last Quarter
May 28
New
Jun 5
First Quarter
Jun 13
Full

Hourly Weather History & Observations

Time (EDT) Temp. Dew Point Humidity Pressure Visibility Wind Dir Wind Speed Gust Speed Precip Events Conditions
12:53 AM 53.1 °F 44.1 °F 71% 30.06 in 10.0 mi NW 8.1 mph - N/A   Clear
1:53 AM 54.0 °F 41.0 °F 62% 30.06 in 10.0 mi NW 10.4 mph - N/A   Clear
2:53 AM 53.1 °F 39.0 °F 59% 30.06 in 10.0 mi NNW 10.4 mph - N/A   Clear
3:53 AM 53.1 °F 37.9 °F 57% 30.07 in 10.0 mi NNW 10.4 mph - N/A   Clear
4:53 AM 51.1 °F 39.0 °F 63% 30.09 in 10.0 mi NW 8.1 mph - N/A   Scattered Clouds
5:53 AM 52.0 °F 37.9 °F 59% 30.09 in 10.0 mi NNW 9.2 mph - N/A   Mostly Cloudy
6:53 AM 53.1 °F 39.0 °F 59% 30.10 in 10.0 mi NW 8.1 mph - N/A   Overcast
7:53 AM 55.0 °F 41.0 °F 59% 30.10 in 10.0 mi NNW 9.2 mph - N/A   Clear
8:53 AM 57.0 °F 41.0 °F 55% 30.10 in 10.0 mi WNW 8.1 mph - N/A   Clear
9:53 AM 60.1 °F 42.1 °F 51% 30.09 in 10.0 mi NNW 8.1 mph - N/A   Clear
10:53 AM 63.0 °F 43.0 °F 48% 30.09 in 10.0 mi NNW 6.9 mph - N/A   Clear
11:53 AM 64.9 °F 43.0 °F 45% 30.07 in 10.0 mi WNW 5.8 mph - N/A   Clear
12:53 PM 66.0 °F 41.0 °F 40% 30.06 in 10.0 mi Variable 3.5 mph - N/A   Clear
1:53 PM 66.9 °F 42.1 °F 40% 30.04 in 10.0 mi Variable 5.8 mph - N/A   Mostly Cloudy
2:53 PM 64.9 °F 39.9 °F 40% 30.02 in 10.0 mi Variable 4.6 mph - N/A   Mostly Cloudy
3:53 PM 66.9 °F 42.1 °F 40% 30.01 in 10.0 mi Variable 6.9 mph - N/A   Mostly Cloudy
4:53 PM 64.9 °F 41.0 °F 42% 30.01 in 10.0 mi NW 5.8 mph - N/A   Mostly Cloudy
5:53 PM 63.0 °F 42.1 °F 46% 30.02 in 10.0 mi East 6.9 mph - N/A   Mostly Cloudy
6:53 PM 61.0 °F 42.1 °F 50% 30.02 in 10.0 mi SE 3.5 mph - N/A   Scattered Clouds
7:53 PM 60.1 °F 44.1 °F 55% 30.03 in 10.0 mi Calm Calm - N/A   Mostly Cloudy
8:53 PM 57.0 °F 46.0 °F 67% 30.03 in 10.0 mi Calm Calm - N/A   Overcast
9:53 PM 61.0 °F 36.0 °F 39% 30.04 in 10.0 mi NW 10.4 mph - N/A   Overcast
10:53 PM 57.9 °F 36.0 °F 44% 30.04 in 10.0 mi NW 11.5 mph - N/A   Clear